THOR ABLESTAR DEB, 210

Orbit data source: Space-Track

THOR ABLESTAR DEB, 210 is space debris in LEO originally from a launch on Thu, 29 Jun 1961 UTC launched from the Air Force Eastern Test Range (AFETR). Debris objects in space refer to the collection of defunct objects orbiting the Earth. Examples of debris include non-operational satellites, rocket bodies, and fragments generated from explosions, collisions, or faulty payload assembly.

Loading next visibility...
THOR ABLESTAR DEB details
Identifier
210, 1961-015BE
Orbit
LEO
Last TLE update1 day ago
Origin
Flag of USUSAF SSD (US)
ManufacturerUnknown
MissionSpacecraft
Bus & MotorUnknown
MassUnknown
Launch date (UTC)
1961-06-29 (64 years ago)
Launch vehicleUnknown
Launch site
Air Force Eastern Test Range (AFETR)
Object type
Payload
Rocket body
Debris
Shape & HBRUnknown
Radar Cross SectionMedium (>0.1 m² and <1 m²)

Expand to show TLE details & history

TLE from 1 day ago
0 THOR ABLESTAR DEB
1   210U 61015BE  25043.63493934  .00000959  00000-0  85655-3 0  9996
2   210  66.4571 133.2493 0052925 264.5124  94.9912 13.88323437197829
Epoch: 2025-02-12T15:14Z
Definitive object data (Epoch: 2025-02-12T15:14:18.758Z)
Latitude-0.00008°
Longitude121.74852°
Altitude940.13 km
Speed7.38 km/s
True Right ascension08h 52m 59s
True Declination0° 00' 00"
Sunlit
Object was in full shadow at TLE epoch
Visualization TLE readout
Latitude-25.59405°
Longitude-48.85782°
Altitude921.384 km
Speed7.402 km/s
Apparent Right ascension00h 41m 45s
Apparent Declination-61° 02' 03"
Sunlit
Object is in daylight
Visualization observer readout
Local Sidereal Time19:02:09
Azimuth145.378° SSE
Elevation-31.897°
Doppler factor1
Orbital elements
Apogee altitude971.641 km
Perigee altitude894.253 km
Semi-major axis7,311.084 km
Eccentricity0.0052925
Inclination66.4571°
RAAN133.2493°
Arg. of periapsis264.5124°
True anomaly95.59502°
Mean anomaly94.9912°
Eccentric anomaly95.29314°
Mean motion3.47193 °/min
BSTAR0.00085655
Orbital period103.69 mins
Loading maneuver chart data...

THOR ABLESTAR DEB Visibility forecast

Observer location: undefined°, undefined

Span
Click to sort rows by Start time (UTC) header in descending order
Start Az.
Max El. time (UTC)
Max El. Az.
Max El.
End time (UTC)
End Az.
9 mins2025-02-13 17:46:47.507Z303.671° NW2025-02-13 17:50:47.507Z259.213° W24.506°2025-02-13 17:55:47.507Z200.066° SSW
11 mins2025-02-14 07:07:47.507Z199.727° SSW2025-02-14 07:12:47.507Z112.966° SE44.124°2025-02-14 07:18:47.507Z32.852° NE
8 mins2025-02-14 08:56:47.507Z277.65° WNW2025-02-14 08:59:47.507Z312.107° NW20.677°2025-02-14 09:04:47.507Z5.44° NNE
6 mins2025-02-14 14:27:47.507Z12.84° NNE2025-02-14 14:29:47.507Z34.061° NE16.029°2025-02-14 14:33:47.507Z75.214° E
11 mins2025-02-14 16:12:47.507Z334.164° NNW2025-02-14 16:17:47.507Z40.167° NE44.211°2025-02-14 16:23:47.507Z145.896° SSE
|